Location: Newark
(25.6108°S, 54.5803°W)
Time: 17:24:36
(UTC+00:00)

Courier 1B Rocket - Pass Details

Date: 29 October 2020
Orbit: 920 x 1202 km, 28.2° (Epoch: 22 November)

Event Time Altitude Azimuth Distance (km) Brightness Sun altitude
Rises 12:17:43 0° 262° (W) 3,809 7.7 45.2°
Reaches altitude 10° 12:20:32 10° 260° (W) 2,812 7.1 45.9°
Maximum altitude 12:27:20 73° 175° (S) 1,016 6.0 47.4°
Drops below altitude 10° 12:33:42 10° 90° (E) 2,648 8.2 48.8°
Sets 12:36:17 0° 88° (E) 3,573 8.6 49.4°
